Time,TemperatureF,DewpointF,PressureIn,WindDirection,WindDirectionDegrees,WindSpeedMPH,WindSpeedGustMPH,Humidity,HourlyPrecipIn,Conditions,Clouds,dailyrainin,SolarRadiationWatts/m^2,SoftwareType,DateUTC
2013-02-15 00:06:00,46.2,44.0,30.06,SSW,197,0.0,0.0,93,0.00,,,0.06,0,weatherlink.com 1.10,2013-02-15 05:06:00,
2013-02-15 00:21:00,46.8,45.0,30.06,SSW,197,0.0,0.0,93,0.00,,,0.06,0,weatherlink.com 1.10,2013-02-15 05:21:00,
2013-02-15 00:36:00,46.0,44.0,30.06,SSW,197,0.0,0.0,93,0.00,,,0.06,0,weatherlink.com 1.10,2013-02-15 05:36:00,
2013-02-15 00:51:00,45.4,44.0,30.06,SSW,197,0.0,0.0,93,0.00,,,0.06,0,weatherlink.com 1.10,2013-02-15 05:51:00,
2013-02-15 01:06:00,46.0,44.0,30.07,NNW,334,0.0,0.0,93,0.00,,,0.06,0,weatherlink.com 1.10,2013-02-15 06:06:00,
2013-02-15 01:21:00,45.6,44.0,30.06,NNW,339,0.0,0.0,93,0.00,,,0.06,0,weatherlink.com 1.10,2013-02-15 06:21:00,
2013-02-15 01:36:00,46.0,44.0,30.06,North,349,2.0,3.0,94,0.00,,,0.06,0,weatherlink.com 1.10,2013-02-15 06:36:00,
2013-02-15 01:51:00,46.0,44.0,30.05,NNW,345,0.0,3.0,93,0.00,,,0.06,0,weatherlink.com 1.10,2013-02-15 06:51:00,
2013-02-15 02:06:00,45.7,44.0,30.06,North,349,2.0,5.0,93,0.00,,,0.06,0,weatherlink.com 1.10,2013-02-15 07:06:00,
2013-02-15 02:21:00,45.2,43.0,30.05,North,355,2.0,3.0,93,0.00,,,0.06,0,weatherlink.com 1.10,2013-02-15 07:21:00,
2013-02-15 02:36:00,45.2,44.0,30.05,NNW,343,0.0,2.0,94,0.00,,,0.06,0,weatherlink.com 1.10,2013-02-15 07:36:00,
2013-02-15 02:51:00,44.9,43.0,30.05,NNW,341,5.0,5.0,93,0.00,,,0.06,0,weatherlink.com 1.10,2013-02-15 07:51:00,
2013-02-15 03:06:00,44.8,43.0,30.05,North,350,1.0,6.0,94,0.00,,,0.06,0,weatherlink.com 1.10,2013-02-15 08:06:00,
2013-02-15 03:21:00,44.7,43.0,30.05,North,357,5.0,7.0,93,0.00,,,0.06,0,weatherlink.com 1.10,2013-02-15 08:21:00,
2013-02-15 03:37:00,44.6,43.0,30.04,NNW,343,8.0,10.0,93,0.00,,,0.00,0,weatherlink.com 1.10,2013-02-15 08:37:00,
2013-02-15 03:51:00,44.4,43.0,30.03,North,6,7.0,9.0,93,0.00,,,0.00,0,weatherlink.com 1.10,2013-02-15 08:51:00,
2013-02-15 04:06:00,44.2,42.0,30.03,North,354,6.0,9.0,93,0.00,,,0.00,0,weatherlink.com 1.10,2013-02-15 09:06:00,
2013-02-15 04:21:00,44.1,42.0,30.04,NNE,16,3.0,7.0,93,0.00,,,0.00,0,weatherlink.com 1.10,2013-02-15 09:21:00,
2013-02-15 04:36:00,44.0,42.0,30.04,NNE,18,3.0,9.0,93,0.00,,,0.00,0,weatherlink.com 1.10,2013-02-15 09:36:00,
2013-02-15 04:51:00,43.8,42.0,30.05,North,2,5.0,8.0,93,0.00,,,0.00,0,weatherlink.com 1.10,2013-02-15 09:51:00,
2013-02-15 05:06:00,43.6,42.0,30.06,North,349,7.0,7.0,93,0.00,,,0.00,0,weatherlink.com 1.10,2013-02-15 10:06:00,
2013-02-15 05:21:00,43.7,42.0,30.06,North,351,7.0,9.0,92,0.00,,,0.00,0,weatherlink.com 1.10,2013-02-15 10:21:00,
2013-02-15 05:36:00,44.0,42.0,30.06,North,351,6.0,11.0,91,0.00,,,0.00,0,weatherlink.com 1.10,2013-02-15 10:36:00,
2013-02-15 05:52:00,44.4,42.0,30.05,North,353,6.0,14.0,90,0.00,,,0.00,0,weatherlink.com 1.10,2013-02-15 10:52:00,
2013-02-15 06:07:00,44.4,42.0,30.06,NNE,26,7.0,11.0,90,0.00,,,0.00,0,weatherlink.com 1.10,2013-02-15 11:07:00,
2013-02-15 06:22:00,44.3,41.0,30.07,North,2,8.0,8.0,89,0.00,,,0.00,0,weatherlink.com 1.10,2013-02-15 11:22:00,
2013-02-15 06:37:00,43.6,41.0,30.07,NNE,14,3.0,9.0,90,0.00,,,0.00,0,weatherlink.com 1.10,2013-02-15 11:37:00,
2013-02-15 06:52:00,43.3,41.0,30.07,North,10,5.0,8.0,90,0.00,,,0.00,0,weatherlink.com 1.10,2013-02-15 11:52:00,
2013-02-15 07:07:00,42.9,40.0,30.08,NNE,12,3.0,6.0,90,0.00,,,0.00,5,weatherlink.com 1.10,2013-02-15 12:07:00,
2013-02-15 07:22:00,42.7,40.0,30.09,NNE,18,0.0,3.0,91,0.00,,,0.00,18,weatherlink.com 1.10,2013-02-15 12:22:00,
2013-02-15 07:37:00,42.7,41.0,30.09,NNE,18,0.0,0.0,92,0.00,,,0.00,58,weatherlink.com 1.10,2013-02-15 12:37:00,
2013-02-15 08:07:00,44.4,42.0,30.10,North,353,1.0,8.0,91,0.00,,,0.00,165,weatherlink.com 1.10,2013-02-15 13:07:00,
2013-02-15 08:22:00,45.7,43.0,30.10,NNW,343,0.0,6.0,91,0.00,,,0.00,220,weatherlink.com 1.10,2013-02-15 13:22:00,
2013-02-15 08:37:00,46.9,44.0,30.09,North,6,6.0,8.0,88,0.00,,,0.00,262,weatherlink.com 1.10,2013-02-15 13:37:00,
2013-02-15 08:52:00,47.9,44.0,30.09,North,8,0.0,8.0,86,0.00,,,0.00,313,weatherlink.com 1.10,2013-02-15 13:52:00,
2013-02-15 09:08:00,49.0,44.0,30.10,NNE,22,0.0,7.0,84,0.00,,,0.00,367,weatherlink.com 1.10,2013-02-15 14:08:00,
2013-02-15 09:22:00,50.6,46.0,30.10,North,3,6.0,6.0,83,0.00,,,0.00,418,weatherlink.com 1.10,2013-02-15 14:22:00,
2013-02-15 09:37:00,51.6,46.0,30.11,ENE,76,0.0,5.0,80,0.00,,,0.00,462,weatherlink.com 1.10,2013-02-15 14:37:00,
2013-02-15 09:52:00,52.6,45.0,30.11,ENE,62,0.0,5.0,74,0.00,,,0.00,517,weatherlink.com 1.10,2013-02-15 14:52:00,
2013-02-15 10:08:00,53.2,45.0,30.11,NNW,347,0.0,9.0,75,0.00,,,0.00,554,weatherlink.com 1.10,2013-02-15 15:08:00,
2013-02-15 10:23:00,54.1,45.0,30.11,NNE,13,1.0,8.0,70,0.00,,,0.00,592,weatherlink.com 1.10,2013-02-15 15:23:00,
2013-02-15 10:38:00,54.7,45.0,30.11,NNE,13,7.0,8.0,69,0.00,,,0.00,628,weatherlink.com 1.10,2013-02-15 15:38:00,
2013-02-15 10:53:00,55.1,45.0,30.11,ENE,67,2.0,6.0,68,0.00,,,0.00,657,weatherlink.com 1.10,2013-02-15 15:53:00,
2013-02-15 11:08:00,56.2,44.0,30.10,East,83,3.0,8.0,65,0.00,,,0.00,679,weatherlink.com 1.10,2013-02-15 16:08:00,
2013-02-15 11:23:00,56.3,44.0,30.10,ESE,122,0.0,5.0,64,0.00,,,0.00,707,weatherlink.com 1.10,2013-02-15 16:23:00,
2013-02-15 11:38:00,55.7,45.0,30.09,SSE,166,3.0,11.0,68,0.00,,,0.00,722,weatherlink.com 1.10,2013-02-15 16:38:00,
2013-02-15 11:53:00,54.9,44.0,30.09,SSE,158,8.0,12.0,68,0.00,,,0.00,740,weatherlink.com 1.10,2013-02-15 16:53:00,
2013-02-15 12:08:00,54.8,46.0,30.08,East,91,8.0,12.0,72,0.00,,,0.00,745,weatherlink.com 1.10,2013-02-15 17:08:00,
2013-02-15 12:23:00,54.9,45.0,30.07,SSE,147,6.0,11.0,70,0.00,,,0.00,752,weatherlink.com 1.10,2013-02-15 17:23:00,
2013-02-15 12:38:00,55.2,45.0,30.07,ESE,122,6.0,11.0,68,0.00,,,0.00,756,weatherlink.com 1.10,2013-02-15 17:38:00,
2013-02-15 12:53:00,55.7,43.0,30.06,SE,128,10.0,11.0,63,0.00,,,0.00,752,weatherlink.com 1.10,2013-02-15 17:53:00,
2013-02-15 13:08:00,55.7,45.0,30.06,NE,37,2.0,11.0,67,0.00,,,0.00,745,weatherlink.com 1.10,2013-02-15 18:08:00,
2013-02-15 13:24:00,54.6,42.0,30.05,SSE,167,7.0,12.0,63,0.00,,,0.00,731,weatherlink.com 1.10,2013-02-15 18:24:00,
2013-02-15 13:38:00,55.1,43.0,30.04,South,172,7.0,11.0,63,0.00,,,0.00,717,weatherlink.com 1.10,2013-02-15 18:38:00,
2013-02-15 13:53:00,54.4,43.0,30.04,SSE,165,6.0,11.0,65,0.00,,,0.00,696,weatherlink.com 1.10,2013-02-15 18:53:00,
2013-02-15 14:09:00,54.8,44.0,30.03,SSE,166,5.0,12.0,66,0.00,,,0.00,675,weatherlink.com 1.10,2013-02-15 19:09:00,
2013-02-15 14:23:00,54.5,44.0,30.02,South,172,4.0,11.0,67,0.00,,,0.00,645,weatherlink.com 1.10,2013-02-15 19:23:00,
2013-02-15 14:39:00,54.5,44.0,30.02,East,95,5.0,10.0,67,0.00,,,0.00,610,weatherlink.com 1.10,2013-02-15 19:39:00,
2013-02-15 14:53:00,54.5,44.0,30.01,SSE,158,4.0,10.0,67,0.00,,,0.00,578,weatherlink.com 1.10,2013-02-15 19:53:00,
2013-02-15 15:08:00,54.2,44.0,30.00,South,176,7.0,10.0,69,0.00,,,0.00,541,weatherlink.com 1.10,2013-02-15 20:08:00,
2013-02-15 15:23:00,54.6,45.0,29.99,South,178,6.0,9.0,69,0.00,,,0.00,499,weatherlink.com 1.10,2013-02-15 20:23:00,
2013-02-15 15:39:00,54.3,43.0,29.99,South,180,5.0,10.0,67,0.00,,,0.00,457,weatherlink.com 1.10,2013-02-15 20:39:00,
2013-02-15 15:54:00,54.3,44.0,29.99,South,180,7.0,10.0,68,0.00,,,0.00,410,weatherlink.com 1.10,2013-02-15 20:54:00,
2013-02-15 16:09:00,54.3,43.0,29.99,SSW,193,6.0,11.0,67,0.00,,,0.00,362,weatherlink.com 1.10,2013-02-15 21:09:00,
2013-02-15 16:24:00,54.4,45.0,29.98,South,180,7.0,12.0,70,0.00,,,0.00,311,weatherlink.com 1.10,2013-02-15 21:24:00,
2013-02-15 16:39:00,54.3,44.0,29.98,South,174,8.0,9.0,68,0.00,,,0.00,260,weatherlink.com 1.10,2013-02-15 21:39:00,
2013-02-15 16:54:00,54.5,45.0,29.98,SSE,163,6.0,9.0,70,0.00,,,0.00,209,weatherlink.com 1.10,2013-02-15 21:54:00,
2013-02-15 17:09:00,54.6,45.0,29.98,SSE,167,8.0,9.0,69,0.00,,,0.00,151,weatherlink.com 1.10,2013-02-15 22:09:00,
2013-02-15 17:24:00,54.5,45.0,29.98,SE,145,6.0,8.0,71,0.00,,,0.00,93,weatherlink.com 1.10,2013-02-15 22:24:00,
2013-02-15 17:39:00,54.3,45.0,29.97,SSE,159,8.0,8.0,70,0.00,,,0.00,44,weatherlink.com 1.10,2013-02-15 22:39:00,
2013-02-15 17:54:00,54.1,45.0,29.98,SSE,161,4.0,7.0,72,0.00,,,0.00,16,weatherlink.com 1.10,2013-02-15 22:54:00,
2013-02-15 18:09:00,53.6,45.0,29.98,SW,214,1.0,4.0,73,0.00,,,0.00,5,weatherlink.com 1.10,2013-02-15 23:09:00,
2013-02-15 18:24:00,52.9,45.0,29.98,SW,214,0.0,1.0,74,0.00,,,0.00,0,weatherlink.com 1.10,2013-02-15 23:24:00,
2013-02-15 18:39:00,52.1,45.0,29.98,SW,214,0.0,0.0,77,0.00,,,0.00,0,weatherlink.com 1.10,2013-02-15 23:39:00,
2013-02-15 18:54:00,51.7,45.0,29.98,SW,214,0.0,0.0,78,0.00,,,0.00,0,weatherlink.com 1.10,2013-02-15 23:54:00,
2013-02-15 19:09:00,51.5,46.0,29.98,SSW,196,0.0,0.0,80,0.00,,,0.00,0,weatherlink.com 1.10,2013-02-16 00:09:00,
2013-02-15 19:24:00,51.3,46.0,29.99,SSW,195,0.0,1.0,82,0.00,,,0.00,0,weatherlink.com 1.10,2013-02-16 00:24:00,
2013-02-15 19:39:00,50.6,45.0,29.98,SSW,195,0.0,0.0,82,0.00,,,0.00,0,weatherlink.com 1.10,2013-02-16 00:39:00,
2013-02-15 19:54:00,50.0,45.0,29.98,SSW,195,0.0,1.0,83,0.00,,,0.00,0,weatherlink.com 1.10,2013-02-16 00:54:00,
2013-02-15 20:09:00,49.4,45.0,29.98,SSW,195,0.0,0.0,85,0.00,,,0.00,0,weatherlink.com 1.10,2013-02-16 01:09:00,
2013-02-15 20:24:00,48.9,45.0,29.98,SSW,195,0.0,0.0,85,0.00,,,0.00,0,weatherlink.com 1.10,2013-02-16 01:24:00,
2013-02-15 20:39:00,48.5,45.0,29.98,SSW,195,0.0,0.0,87,0.00,,,0.00,0,weatherlink.com 1.10,2013-02-16 01:39:00,
2013-02-15 20:54:00,47.8,45.0,29.98,SSW,195,0.0,0.0,89,0.00,,,0.00,0,weatherlink.com 1.10,2013-02-16 01:54:00,
2013-02-15 21:09:00,47.0,44.0,29.98,SSW,195,0.0,0.0,90,0.00,,,0.00,0,weatherlink.com 1.10,2013-02-16 02:09:00,
2013-02-15 21:24:00,46.8,44.0,29.98,SSW,195,0.0,0.0,91,0.00,,,0.00,0,weatherlink.com 1.10,2013-02-16 02:24:00,
2013-02-15 21:39:00,46.8,44.0,29.98,SSW,195,0.0,0.0,91,0.00,,,0.00,0,weatherlink.com 1.10,2013-02-16 02:39:00,
2013-02-15 21:54:00,47.0,45.0,29.99,SSW,195,0.0,0.0,92,0.00,,,0.00,0,weatherlink.com 1.10,2013-02-16 02:54:00,
2013-02-15 22:09:00,46.7,45.0,29.98,SSW,195,0.0,0.0,92,0.00,,,0.00,0,weatherlink.com 1.10,2013-02-16 03:09:00,
2013-02-15 22:24:00,46.5,45.0,29.98,SSW,195,0.0,0.0,93,0.00,,,0.00,0,weatherlink.com 1.10,2013-02-16 03:24:00,
2013-02-15 22:39:00,46.9,45.0,29.98,SSW,195,0.0,0.0,94,0.00,,,0.00,0,weatherlink.com 1.10,2013-02-16 03:39:00,
2013-02-15 22:54:00,46.9,45.0,29.98,SSW,195,0.0,0.0,93,0.00,,,0.00,0,weatherlink.com 1.10,2013-02-16 03:54:00,
2013-02-15 23:09:00,46.9,45.0,29.98,SSW,195,0.0,0.0,94,0.00,,,0.00,0,weatherlink.com 1.10,2013-02-16 04:09:00,
2013-02-15 23:24:00,47.4,46.0,29.98,SSW,195,0.0,0.0,94,0.00,,,0.00,0,weatherlink.com 1.10,2013-02-16 04:24:00,
2013-02-15 23:39:00,47.7,46.0,29.97,SSW,195,0.0,0.0,94,0.00,,,0.00,0,weatherlink.com 1.10,2013-02-16 04:39:00,
2013-02-15 23:54:00,47.4,46.0,29.96,SSW,195,0.0,0.0,94,0.00,,,0.00,0,weatherlink.com 1.10,2013-02-16 04:54:00,